Location: *
(45.2167°S, 168.9833°W)
Time: 07:43:23
(UTC+00:00)

Daily predictions for brighter satellites

Satellite Brightness Start Highest point End
(mag) Time Altitude Azimuth Time Altitude Azimuth Time Altitude Azimuth
SL-16 R/B 4.2 13:55:13 22° SSE 13:55:13 22° SSE 13:57:10 10° SSE
Cosmos 2360 Rocket 4.0 13:57:05 28° SE 13:57:05 28° SE 13:59:47 10° SE
Cosmos 2322 Rocket 4.1 14:02:49 24° SSE 14:02:49 24° SSE 14:05:01 10° SSE
CZ-4C R/B 3.4 14:04:20 54° SE 14:04:20 54° SE 14:09:24 10° SE
SL-16 R/B 3.7 13:58:00 10° SSE 14:01:42 38° SSE 14:01:42 38° SSE
USA 215 3.9 14:05:44 10° E 14:12:02 49° SSE 14:12:29 48° SSE
Cosmos 2333 Rocket 3.9 14:12:17 28° E 14:12:17 28° E 14:16:58 10° SE
NOSS 3-1 (C) 4.4 14:23:41 38° E 14:23:41 38° E 14:27:13 10° ENE
Cosmos 2278 Rocket 4.4 14:21:34 10° S 14:26:01 23° SE 14:30:27 10° E
ATLAS CENTAUR R/B 4.4 14:29:49 11° SSE 14:29:49 11° SSE 14:30:05 10° SSE
Cosmos 1634 Rocket 4.4 14:27:58 60° ESE 14:27:58 60° ESE 14:33:51 10° SSE
ALOS 3.8 14:41:17 10° NE 14:45:32 34° ESE 14:49:49 10° S
Cosmos 2219 Rocket 2.7 14:51:45 53° NE 14:52:10 54° ENE 14:57:43 10° SE
Cosmos 1680 Rocket 4.3 14:54:36 45° S 14:54:36 45° S 14:58:21 10° SSE
CZ-4B R/B 4.3 15:09:15 10° SE 15:11:30 17° E 15:13:46 10° NE
Cosmos 2322 3.7 15:13:57 68° SW 15:13:57 68° SW 15:19:27 10° SSE
Cosmos 2279 Rocket 4.0 15:11:39 37° N 15:14:24 84° E 15:20:46 10° S
COSMOS 2428 2.8 15:14:40 57° N 15:15:51 77° ENE 15:21:38 10° SSE
STARLINK-1225 4.3 15:17:30 53° SE 15:17:30 53° SE 15:20:49 10° ESE
Cosmos 2333 4.1 15:18:08 69° WSW 15:18:12 69° WSW 15:24:02 10° SSE
STARLINK-1096 4.3 15:20:16 50° ENE 15:20:16 50° ENE 15:23:24 10° ENE
SL-8 R/B 4.0 15:21:23 58° S 15:21:32 58° S 15:26:22 10° E
STARLINK-1230 4.1 15:22:17 59° SE 15:22:17 59° SE 15:25:47 10° ESE
COBE Rocket 4.4 15:18:48 10° SSE 15:24:01 63° E 15:27:45 18° N
FENGYUN 3A 3.6 15:18:37 10° NNE 15:24:02 83° ESE 15:29:32 10° SSW
STARLINK-1079 4.1 15:25:03 56° NE 15:25:03 56° NE 15:28:23 10° NE
STARLINK-1243 3.9 15:27:03 64° SSE 15:27:03 64° SSE 15:30:45 10° SE
Cosmos 158 Rocket 4.4 15:27:34 42° SSW 15:27:34 42° SSW 15:31:23 10° SSE
Meteor 1-21 4.4 15:22:39 10° S 15:28:23 75° ESE 15:34:07 10° NNE
STARLINK-1116 3.9 15:29:51 61° NE 15:29:51 61° NE 15:33:22 10° NE
Cosmos 1975 3.4 15:31:48 49° S 15:31:48 49° S 15:34:55 10° S
STARLINK-1236 3.8 15:31:50 67° S 15:31:50 67° S 15:35:44 10° SE
NOSS 2-3 (D) 4.4 15:25:02 10° SW 15:32:17 83° SE 15:37:43 10° NE
USA 229 DEB 3.6 15:33:07 35° WSW 15:35:51 58° WNW 15:42:13 10° NNE
USA 229 3.6 15:33:09 34° WSW 15:35:59 59° WNW 15:42:21 10° NNE
SL-16 R/B 4.0 15:37:05 16° SW 15:37:05 16° SW 15:40:02 10° S
Abrixas rocket 3.5 15:38:12 36° E 15:38:12 36° E 15:40:13 10° ESE
Cosmos 2360 Rocket 3.3 15:38:52 28° SW 15:38:52 28° SW 15:43:27 10° S
STARLINK-1094 3.6 15:39:24 67° N 15:39:24 67° N 15:43:16 10° NE
Okean 2 Rocket 3.2 15:38:09 19° N 15:41:22 75° E 15:45:57 10° SSE
STARLINK-1269 3.7 15:41:24 63° SSW 15:41:27 63° SSW 15:45:40 10° SE
Cosmos 2151 Rocket 4.4 15:38:30 10° N 15:42:52 53° E 15:47:20 10° SSE
H-2A R/B 2.2 15:38:36 10° S 15:43:01 55° WSW 15:43:01 55° WSW
Sich 1 Rocket 3.6 15:43:09 62° WNW 15:43:29 64° W 15:48:07 10° S
STARLINK-1117 3.6 15:44:12 64° NNW 15:44:12 64° NNW 15:48:14 10° NE
Cosmos 2322 Rocket 4.0 15:44:39 16° SW 15:44:39 16° SW 15:47:51 10° S
NOSS 0 Rocket 4.2 15:40:02 13° NNW 15:45:32 69° ENE 15:51:47 10° SSE
NOSS 3-1 (A) 3.2 15:41:11 20° SW 15:45:37 70° WNW 15:51:05 10° NNE
STARLINK-1111 4.5 15:44:53 34° SSW 15:46:14 46° SSE 15:50:19 10° E
STARLINK-1200 3.7 15:46:11 58° SW 15:46:27 59° SSW 15:50:39 10° SE
SL-16 R/B 3.9 15:42:43 10° S 15:46:47 21° SW 15:46:47 21° SW
Cosmos 2180 Rocket 4.5 15:42:40 13° NNW 15:48:32 70° W 15:55:02 10° S
CZ-4B DEB 4.2 15:43:25 10° NNE 15:49:01 90° WNW 15:54:43 10° SSW
STARLINK-1078 3.6 15:48:59 60° NW 15:49:03 60° NW 15:53:10 10° NE
Cosmos 1420 Rocket 3.9 15:43:56 10° SSW 15:49:16 77° WNW 15:54:35 10° NNE
Okean O Rocket 2.5 15:45:38 10° NE 15:49:59 51° ESE 15:54:23 10° S
STARLINK-1073 4.4 15:49:40 32° SSW 15:51:14 48° SSE 15:55:19 10° E
STARLINK-1192 3.8 15:50:58 52° SW 15:51:27 56° SSW 15:55:37 10° SE
CZ-4C R/B 3.8 15:49:32 26° WSW 15:51:46 30° SW 15:57:31 10° SSE
STARLINK-1108 3.7 15:53:47 54° NW 15:54:01 55° NW 15:58:07 10° NE
USA 215 3.2 15:48:17 10° NE 15:54:52 69° NW 15:59:51 19° WSW
Cosmos 371 Rocket 3.7 15:49:58 10° SSW 15:54:54 66° ESE 15:59:45 10° NNE
Cosmos 2333 Rocket 2.5 15:54:20 37° WNW 15:56:06 49° WSW 16:01:46 10° SSE
STARLINK-1121 4.3 15:54:28 30° SW 15:56:15 51° SSE 16:00:21 10° ENE
STARLINK-1244 3.9 15:55:45 47° WSW 15:56:26 53° SSW 16:00:36 10° SE
Cosmos 2084 4.5 15:57:18 30° SW 15:57:22 30° SW 16:01:12 10° SSE
PSLV R/B 3.7 15:54:04 10° N 15:57:52 57° W 16:01:40 10° SSW
ISS -2.9 15:57:26 37° SSW 15:58:18 46° SSE 16:01:38 10° E
STARLINK-1071 3.8 15:58:34 48° WNW 15:58:59 50° NW 16:03:02 10° NE
Cosmos 2237 Rocket 2.5 15:55:06 10° NNW 16:00:47 70° ENE 16:06:31 10° SSE
STARLINK-1106 4.2 15:59:16 28° SW 16:01:15 54° SSE 16:05:22 10° ENE
STARLINK-1138 4.0 16:00:32 42° WSW 16:01:26 50° SSW 16:05:34 10° SE
STARLINK-1110 3.9 16:03:21 43° WNW 16:03:57 46° NW 16:07:57 10° NNE
Meteor 1-12 Rocket 4.3 15:58:18 10° N 16:04:01 82° E 16:09:46 10° SSE
NOSS 2-3 (C) 4.3 15:57:59 10° SW 16:04:49 60° WNW 16:10:01 10° NNE
STARLINK-1201 4.4 16:04:43 26° SSW 16:05:00 26° SSW 16:07:52 10° SE
STARLINK-1112 4.1 16:04:02 26° SW 16:06:14 57° SSE 16:10:23 10° ENE
STARLINK-1143 4.1 16:05:18 37° WSW 16:06:26 48° SSW 16:10:32 10° SE
STARLINK-1124 4.1 16:08:06 38° WNW 16:08:51 42° NW 16:12:50 10° NNE
Cosmos 2278 Rocket 2.1 16:04:58 10° SSW 16:10:42 71° WNW 16:16:20 10° NNE
BREEZE-M DEB (TANK) 3.5 16:09:31 30° SW 16:10:47 52° SSE 16:17:13 10° E
STARLINK-1128 4.0 16:08:49 24° SW 16:11:14 61° SSE 16:15:24 10° ENE
STARLINK-1241 4.2 16:10:07 33° WSW 16:11:28 45° SSW 16:15:33 10° SE
NOSS 3-1 (C) 4.0 16:11:15 27° W 16:12:01 28° WNW 16:16:38 10° N
CZ-4B R/B 3.3 16:07:51 10° NNE 16:13:34 88° W 16:19:17 10° SSW
BREEZE M DEB (TANK) 3.3 16:11:32 25° NW 16:13:35 65° NE 16:23:27 10° ESE
STARLINK-1122 4.2 16:12:54 34° WNW 16:13:50 39° NW 16:17:45 10° NNE
STARLINK-1113 3.9 16:13:39 22° SW 16:16:17 65° SSE 16:20:27 10° ENE
STARLINK-1239 4.3 16:14:52 30° WSW 16:16:26 43° SSW 16:20:30 10° SE
Cosmos 1025 Rocket 3.0 16:12:32 10° SSW 16:16:58 66° W 16:21:22 10° N
Cosmos 1048 Rocket 4.1 16:12:22 10° NNW 16:17:44 82° ENE 16:23:05 10° SSE
STARLINK-1126 4.3 16:17:41 30° WNW 16:18:47 36° NW 16:22:37 10° NNE
Cosmos 2292 Rocket 3.9 16:14:52 10° SSW 16:19:09 60° W 16:24:50 10° N
Cosmos 2266 Rocket 4.0 16:13:58 10° SSW 16:20:04 59° W 16:26:13 10° N
Landsat 5 4.3 16:16:35 10° S 16:20:21 31° WSW 16:21:23 27° W
STARLINK-1119 3.9 16:18:23 20° SW 16:21:13 69° SSE 16:25:24 10° ENE
STARLINK-1240 4.3 16:19:40 27° WSW 16:21:27 41° SSW 16:25:29 10° SE
Cosmos 2098 Rocket 3.9 16:15:41 10° S 16:21:53 71° E 16:26:41 10° NNE
H-2A R/B 3.1 16:18:44 10° NNE 16:22:39 71° ESE 16:26:36 10° S
ALOS 3.1 16:18:56 10° NNW 16:22:58 28° W 16:27:04 10° SW
Cosmos 1242 Rocket 2.5 16:19:14 10° S 16:22:59 90° NE 16:26:37 10° N
STARLINK-1082 4.4 16:22:29 27° W 16:23:45 33° NW 16:27:31 10° NNE
Okean 1 Rocket 3.5 16:21:43 10° N 16:26:12 69° E 16:30:46 10° SSE
STARLINK-1114 3.8 16:23:11 18° SW 16:26:13 74° SSE 16:30:25 10° ENE
STARLINK-1216 4.4 16:24:27 24° WSW 16:26:28 39° SSW 16:30:28 10° SE
Cosmos 332 Rocket 3.7 16:21:52 10° SSW 16:26:45 86° WNW 16:31:35 10° NNE
SMAP 3.5 16:24:54 10° NNE 16:29:33 69° ESE 16:34:17 10° S
STARLINK-1130 (DARKSAT) 3.7 16:27:57 17° SW 16:31:11 79° SSE 16:35:23 10° ENE
STARLINK-1237 4.5 16:29:13 21° WSW 16:31:27 38° SSW 16:35:26 10° SE
Cosmos 1707 2.8 16:28:17 10° SSW 16:32:08 52° W 16:35:54 10° N
STARLINK-1084 3.7 16:32:45 15° WSW 16:36:10 85° SSE 16:40:23 10° ENE
Cosmos 2219 Rocket 3.2 16:33:31 18° W 16:36:27 28° SW 16:41:19 10° S
Cosmos 1452 Rocket 3.9 16:31:46 10° SW 16:36:46 42° WNW 16:41:42 10° N
Cosmos 1536 Rocket 4.0 16:36:01 10° SSW 16:40:16 41° W 16:44:29 10° NNW
NOAA 6 4.4 16:36:10 10° N 16:41:07 44° W 16:46:10 10° SSW
STARLINK-1098 3.6 16:37:31 14° WSW 16:41:09 90° NNW 16:45:21 10° NE
Cosmos 1271 Rocket 2.8 16:38:30 10° SSW 16:42:35 63° W 16:46:34 10° N
CZ-4B R/B 2.2 16:40:53 10° S 16:43:53 30° WSW 16:46:53 10° NW
CZ-3 R/B 4.1 16:28:08 15° W 16:45:07 32° NNW 16:52:43 10° NNE
GP-B 3.2 16:40:55 10° N 16:45:25 85° E 16:49:59 10° S
STARLINK-1123 3.6 16:42:19 13° WSW 16:46:08 84° NNW 16:50:20 10° NE
Cosmos 1110 Rocket 4.0 16:44:09 10° SSW 16:49:31 82° WNW 16:54:51 10° NNE
Cosmos 1356 4.3 16:47:24 10° NW 16:50:30 30° WSW 16:53:40 10° S
STARLINK-1097 3.6 16:47:05 11° WSW 16:51:06 78° NW 16:55:17 10° NE
STARLINK-1099 3.7 16:51:53 10° WSW 16:56:05 72° NW 17:00:16 10° NE
YAOGAN 6 2.8 16:56:10 10° NNE 16:59:44 75° ESE 17:03:20 10° S
KORONAS-FOTON 4.0 16:56:03 10° S 17:00:04 80° E 17:04:03 10° N
Aureole 3 Rocket 3.5 16:56:45 10° N 17:00:31 70° E 17:05:43 10° SSE
COSMOS 2428 4.0 16:56:44 11° W 17:00:47 22° SW 17:05:09 10° S
STARLINK-1104 3.7 16:56:50 10° WSW 17:01:03 67° NW 17:05:12 10° NE
Cosmos 304 Rocket 3.8 16:56:30 10° SSW 17:01:22 66° WNW 17:06:10 10° N
Feng Yun 1-1 Rocket 4.4 16:56:42 10° NNE 17:02:36 82° WNW 17:08:39 10° SSW
Cosmos 1980 4.2 16:58:32 10° NW 17:03:50 39° SW 17:09:11 10° SSE
SL-8 R/B 3.8 16:59:27 10° WSW 17:04:23 87° SSE 17:09:17 10° ENE
STARLINK-1144 3.8 17:01:49 10° WSW 17:06:00 62° NW 17:10:08 10° NE
CORIOLIS 4.2 17:00:56 10° N 17:06:17 69° WNW 17:11:43 10° SSW
IRS-1C Rocket 4.1 17:01:14 10° N 17:06:31 76° WNW 17:11:53 10° SSW
Meteor 1-24 Rocket 4.4 17:01:03 10° S 17:07:05 67° ESE 17:13:08 10° NNE
Meteor 2-14 Rocket 4.5 17:02:08 10° SSW 17:08:22 75° W 17:14:31 10° N
STARLINK-1103 3.9 17:06:49 10° WSW 17:10:58 57° NW 17:15:04 10° NE
Abrixas rocket 2.5 17:09:58 10° W 17:12:54 47° S 17:15:51 10° ESE
CZ-4 R/B 2.8 17:10:23 10° NE 17:14:27 46° ESE 17:18:34 10° S
STARLINK-1101 4.0 17:11:49 10° WSW 17:15:56 52° NW 17:20:00 10° NE
FengYun 1-2 T 4.5 17:11:25 10° NNE 17:17:07 85° ESE 17:22:54 10° SSW
Cosmos 1745 Rocket 4.2 17:12:28 10° S 17:18:50 85° E 17:25:11 10° N
